This is the latest recevied weather packets stored in our database for station/object N4JTC. If no packets are shown the sender has not sent any weather packets the latest 10 day(s).
| Time | Temp. | Humidity | Pressure | Rain* | Wind** | Luminosity | Snow |
|---|---|---|---|---|---|---|---|
| 1777716304 | 14.44° C | 99% | 1009.2 hPa | 8.89 mm | - | 0 W/m² | - |
| 1777716003 | 14.44° C | 99% | 1009.2 hPa | 6.1 mm | - | 0 W/m² | - |
| 1777715703 | 14.44° C | 99% | 1009.6 hPa | 12.7 mm | - | 0 W/m² | - |
| 1777715403 | 14.44° C | 99% | 1008.5 hPa | 22.86 mm | - | 0 W/m² | - |
| 1777715103 | 14.44° C | 99% | 1008.9 hPa | 27.69 mm | - | 0 W/m² | - |
| 1777714802 | 14.44° C | 99% | 1009.3 hPa | 30.73 mm | - | 0 W/m² | - |
| 1777714503 | 14.44° C | 99% | 1009 hPa | 22.86 mm | - | 0 W/m² | - |
| 1777714204 | 14.44° C | 97% | 1009 hPa | 12.7 mm | - | 0 W/m² | - |
| 1777713902 | 14.44° C | 97% | 1008.5 hPa | 11.94 mm | - | 0 W/m² | - |
| 1777713603 | 14.44° C | 97% | 1009.3 hPa | 8.89 mm | - | 0 W/m² | - |
| 1777713303 | 14.44° C | 97% | 1010 hPa | 4.32 mm | - | 0 W/m² | - |
| 1777713003 | 14.44° C | 97% | 1008.8 hPa | 6.1 mm | - | 0 W/m² | - |
| 1777712702 | 14.44° C | 97% | 1009.2 hPa | 7.87 mm | - | 0 W/m² | - |
| 1777712403 | 14.44° C | 96% | 1009.2 hPa | 6.1 mm | - | 0 W/m² | - |
| 1777712103 | 14.44° C | 97% | 1009.9 hPa | 7.87 mm | - | 0 W/m² | - |
| 1777711803 | 14.44° C | 97% | 1009.7 hPa | 8.89 mm | - | 0 W/m² | - |
| 1777711503 | 14.44° C | 96% | 1009.3 hPa | 10.16 mm | - | 0 W/m² | - |
| 1777710904 | 15° C | 97% | 1009.8 hPa | 25.91 mm | - | 0 W/m² | - |
| 1777710603 | 15° C | 95% | 1010.2 hPa | 6.6 mm | - | 0 W/m² | - |
| 1777710303 | 15° C | 95% | 1010.4 hPa | 3.05 mm | - | 0 W/m² | - |
| 1777710004 | 15° C | 95% | 1010.3 hPa | 1.27 mm | - | 0 W/m² | - |
| 1777709702 | 15° C | 95% | 1010.4 hPa | 0 mm | - | 0 W/m² | - |
| 1777709403 | 15° C | 96% | 1010.1 hPa | 0 mm | - | 0 W/m² | - |
| 1777709103 | 15° C | 95% | 1010.2 hPa | 0 mm | - | 0 W/m² | - |
| 1777708804 | 15° C | 95% | 1009.9 hPa | 0 mm | - | 0 W/m² | - |
* Rain latest hour (hover to see other rain measurements)
** Current wind speed in m/s (hover to see current wind gust speed)